RH
84 84 85 86 85 83 85 85 86 86 85 85 85 84 83 83 83 83 84 83 84 85 88 88 87 85 80 75 73 74 75 72 73 73 71 67 61 56 51 52 53 55 57 60 63 66 67 68 69 69 68 63 56 51 50 57 64 70 74 76 77 78 78 77 76 75 76 76 76 77 80 81 82 81 79 78 77 76 76 76 77 77 77 77 77 76 76 76 78 79 82 82 83 83 86 86 87 88 87 82 81 83 84
82 83 87 88 87 86 86 85 85 84 83 82 81 80 81 82 83 84 83 82 82 84 88 88 88 86 80 77 72 68 69 71 72 72 70 64 58 53 50 52 53 55 56 59 63 65 67 67 68 67 65 58 54 54 61 68 71 73 74 76 77 77 77 76 75 75 77 77 77 78 80 81 80 79 79 78 78 77 77 77 78 78 79 78 78 77 76 76 76 78 80 82 83 84 85 85 85 85 86 82 82 83 83
80 83 89 88 87 86 84 83 82 81 79 78 78 79 81 83 84 83 82 82 82 82 84 86 86 85 83 82 75 68 65 68 70 70 67 60 54 50 49 51 52 53 54 58 62 66 68 68 68 66 62 56 58 64 73 76 76 75 75 76 76 76 76 76 76 77 78 79 80 81 80 81 80 79 79 80 80 79 79 79 80 80 82 82 80 78 77 75 75 76 78 78 79 80 81 82 83 84 83 85 87 87 86
79 82 86 84 83 83 82 82 81 80 79 79 80 81 82 85 86 86 86 86 84 83 85 85 87 88 89 86 80 71 60 63 66 67 64 57 51 48 48 51 52 53 54 58 63 66 68 68 67 64 59 58 64 73 80 79 77 76 76 76 76 76 77 77 78 79 81 82 83 83 81 81 80 80 79 81 81 81 82 82 82 82 85 85 84 83 80 77 75 74 76 76 77 78 79 80 81 82 83 86 88 88 88
79 80 84 82 81 81 81 80 80 81 81 81 82 84 85 85 87 89 90 88 88 87 85 88 89 88 85 83 80 75 64 58 60 63 61 54 49 47 48 50 52 54 55 60 64 67 68 68 66 63 57 61 69 77 80 78 77 76 75 75 76 77 78 78 78 80 82 83 83 82 81 80 79 79 80 81 82 82 84 84 84 85 85 85 84 83 84 82 79 76 76 78 78 79 80 79 79 80 82 83 85 86 86
81 82 84 82 81 80 79 78 79 81 84 84 84 84 85 86 88 89 90 89 90 91 89 88 88 87 87 83 80 75 66 53 53 59 59 52 48 46 48 50 53 55 58 62 66 68 68 67 65 62 57 63 72 79 80 78 76 76 76 78 80 81 82 80 80 82 83 83 82 81 80 80 79 79 79 80 81 82 84 84 84 84 85 84 83 83 87 86 84 83 82 82 81 81 82 82 81 81 82 82 82 84 85
86 86 88 85 82 80 79 80 80 82 83 84 84 82 83 88 89 88 90 89 89 90 91 91 86 83 90 84 82 77 68 48 46 53 57 51 47 46 48 51 54 57 61 65 68 68 68 67 64 61 59 66 74 80 80 78 77 76 77 80 83 84 84 83 82 82 81 81 80 80 80 79 78 78 80 81 81 82 82 82 82 82 84 84 84 84 86 86 85 85 86 84 84 84 83 83 82 81 82 80 80 80 81
87 90 90 88 84 81 81 81 80 80 81 83 83 82 83 87 88 88 88 86 86 86 88 91 90 88 87 88 86 81 70 47 41 45 55 50 47 46 49 53 56 60 64 68 69 69 68 67 63 61 61 69 76 80 80 79 78 77 78 80 82 83 83 83 82 81 80 79 79 79 81 80 80 81 81 81 80 80 80 80 81 82 82 83 84 85 86 86 85 85 83 84 84 84 86 88 87 84 83 86 88 88 86
88 94 93 88 86 84 81 80 80 80 81 82 82 83 82 86 88 89 85 84 83 81 83 86 89 91 90 90 89 84 74 50 37 37 52 49 47 46 50 54 58 62 66 69 69 69 68 66 63 61 65 73 79 81 80 79 78 78 78 79 79 79 79 79 79 80 79 79 79 80 81 81 81 81 80 80 80 80 80 79 79 80 82 83 84 84 84 84 84 83 82 82 82 84 86 88 87 87 87 87 89 90 86
85 91 93 84 82 84 85 82 81 81 81 82 82 82 83 87 89 88 86 85 84 83 82 84 86 89 91 91 89 85 76 53 36 32 48 47 46 47 51 56 60 64 67 69 69 68 67 64 62 64 71 78 81 82 80 78 77 77 77 77 77 78 78 78 78 78 78 78 80 81 81 80 80 80 79 79 79 80 79 79 78 78 80 82 84 84 83 83 83 82 82 81 81 82 84 83 82 82 84 84 83 82 80
84 87 87 79 80 84 85 84 83 81 81 82 82 83 88 91 90 88 87 86 86 85 85 84 85 86 87 87 87 84 75 51 34 30 44 45 46 48 52 57 61 64 67 68 68 67 66 62 62 68 79 84 84 83 80 77 75 75 75 74 74 75 76 76 76 77 77 77 78 79 81 81 81 80 79 79 79 79 80 80 79 78 79 80 82 84 85 84 83 83 82 82 81 80 80 80 82 82 82 81 81 81 80
84 86 85 82 85 88 89 85 82 80 81 81 84 88 92 92 90 88 85 86 87 85 82 82 83 83 85 81 80 77 69 45 32 31 42 43 45 48 52 57 61 64 66 67 68 66 63 59 63 73 85 86 85 82 79 77 75 75 74 74 73 73 73 74 74 75 75 76 77 79 82 81 80 80 79 80 80 81 81 81 79 78 78 79 81 83 84 84 83 83 83 83 82 81 81 80 81 82 82 81 81 82 82
83 88 91 90 92 92 87 85 83 82 83 83 87 90 91 88 87 87 86 88 86 81 76 81 82 81 81 78 75 69 57 37 30 33 41 42 44 48 53 57 61 63 65 66 66 64 59 58 67 78 88 87 84 81 78 76 75 75 76 76 76 76 76 75 76 77 77 77 80 82 82 81 80 80 80 80 81 82 82 82 81 79 78 78 79 80 82 83 83 82 82 82 82 82 81 81 81 81 81 81 81 81 80
84 91 96 92 91 90 89 87 86 86 86 85 87 90 91 87 86 88 89 88 83 77 73 77 77 75 69 64 59 52 41 29 29 35 40 40 43 47 52 57 60 62 64 64 63 60 56 60 71 83 88 86 83 80 77 76 76 76 78 80 81 81 81 80 80 81 81 80 81 82 81 80 79 79 80 81 82 82 82 82 81 81 80 79 79 80 80 81 82 82 81 81 82 81 81 80 80 80 80 80 80 79 78
86 91 93 90 89 89 90 87 85 84 85 84 87 91 94 90 89 90 91 87 79 71 65 66 62 53 43 37 33 30 26 25 30 36 37 38 41 46 51 56 60 62 62 60 57 54 53 64 76 86 87 83 80 78 76 76 77 79 81 82 82 82 81 81 81 81 82 81 81 80 79 78 77 78 79 81 81 81 81 80 80 80 81 80 79 79 80 81 81 81 81 81 81 81 81 80 80 79 79 80 79 78 78
86 88 88 90 90 90 88 86 84 83 87 88 93 97 97 92 91 90 90 82 71 59 53 49 42 33 25 20 18 18 20 26 32 36 35 35 38 43 50 56 59 60 60 56 53 52 54 69 80 87 85 81 78 76 76 78 80 81 82 81 80 79 78 78 79 80 80 80 80 78 77 76 76 77 78 81 82 82 81 80 80 80 81 79 76 76 80 80 80 80 81 80 80 81 81 81 80 80 80 80 79 79 79
87 88 86 88 89 90 88 85 83 85 93 97 99 99 97 92 88 84 79 68 56 44 38 36 33 30 26 20 16 16 21 30 35 37 34 33 37 43 50 55 58 58 57 55 53 54 59 74 83 86 83 80 78 77 78 80 82 82 82 80 78 76 75 74 75 76 77 78 78 77 76 76 76 77 79 82 84 84 83 81 81 80 79 79 78 78 80 81 81 81 81 81 81 82 82 82 81 81 80 79 79 79 80
88 88 87 86 89 92 89 86 85 89 98 98 96 92 85 79 73 67 59 48 40 34 33 35 37 38 35 28 22 20 24 33 37 37 34 33 38 44 50 54 56 57 56 55 55 57 63 77 83 84 80 79 78 79 80 82 82 82 81 80 78 76 74 73 74 75 75 76 77 78 79 78 77 78 80 83 85 86 84 82 81 80 79 80 81 81 81 81 82 82 81 81 82 82 82 81 81 81 80 79 79 79 79
88 88 85 87 90 92 90 88 88 90 94 92 86 77 65 59 53 46 38 34 33 34 37 40 42 43 41 36 31 27 27 34 36 36 33 34 39 45 50 52 54 56 57 57 57 59 66 79 82 81 79 78 78 80 81 82 82 81 81 81 80 79 77 76 74 73 74 74 77 80 81 80 79 79 80 82 84 85 85 82 81 80 80 80 81 81 82 82 82 82 80 81 82 82 81 79 79 80 79 79 79 80 80
88 87 84 88 90 91 90 87 86 86 89 87 78 64 52 45 38 33 29 32 36 40 43 44 45 44 43 41 37 33 31 33 34 35 33 35 40 46 49 50 53 55 57 58 58 60 68 78 81 79 77 77 79 80 82 82 81 80 81 81 80 80 79 78 75 74 77 78 80 82 82 80 80 79 78 80 81 83 85 83 82 81 81 80 80 81 81 82 82 82 80 81 80 80 80 78 79 79 79 79 80 81 81
87 85 82 87 89 89 87 84 80 80 84 81 70 56 46 38 32 29 32 37 41 44 45 45 43 42 42 42 40 37 35 33 33 32 32 35 40 45 47 48 51 55 57 58 58 61 68 77 80 78 77 79 81 82 82 82 81 80 81 81 81 80 79 78 77 78 81 83 84 82 80 80 79 79 78 77 77 79 81 83 83 82 81 80 81 82 81 81 81 82 81 82 80 79 79 79 79 80 79 79 80 81 80
86 84 81 84 87 87 84 79 75 72 73 69 60 50 41 33 30 31 36 40 42 43 43 41 39 39 40 41 40 39 38 36 32 30 29 34 40 45 46 48 51 55 58 59 59 61 67 76 79 78 78 81 84 86 85 84 82 81 82 82 81 80 79 78 77 78 80 83 83 83 81 80 79 79 78 76 75 76 78 80 80 81 81 81 82 83 82 81 81 82 82 82 82 81 80 80 80 80 80 79 79 80 80
85 84 81 82 84 84 81 74 70 66 63 59 52 44 36 31 31 34 38 39 39 39 38 37 37 37 38 38 39 40 40 38 34 30 27 32 39 44 45 48 52 56 59 60 60 61 66 75 77 77 77 81 85 88 88 87 85 83 82 82 81 80 80 78 78 77 78 80 81 81 81 80 81 81 79 77 76 76 76 77 78 79 79 80 82 83 83 82 82 82 82 82 82 81 81 80 80 81 80 80 80 80 80
84 84 82 80 80 80 78 70 65 61 58 55 49 41 35 33 33 35 37 37 37 37 36 35 36 36 36 36 37 38 40 39 37 32 26 30 37 43 45 49 54 58 61 61 61 61 64 72 76 76 75 78 82 86 89 88 87 85 83 82 81 80 80 79 78 78 77 79 79 79 80 82 81 80 80 80 80 79 79 78 78 78 77 79 80 82 83 82 82 82 81 82 81 81 81 80 80 80 80 81 81 81 80
82 83 82 78 77 76 74 67 62 59 57 56 51 44 38 37 36 36 35 35 35 35 35 34 34 34 34 34 35 37 38 39 37 34 27 26 33 42 45 51 56 60 62 62 61 61 62 68 73 75 73 74 77 81 85 86 86 84 83 82 82 82 81 80 78 77 76 78 79 79 80 81 80 79 80 80 82 83 83 82 81 80 78 79 79 80 81 82 83 82 82 82 81 80 81 80 80 81 81 82 82 83 82
80 80 79 74 71 69 68 63 60 60 62 62 57 50 45 43 41 38 35 34 34 34 34 33 32 31 29 31 33 36 37 38 37 34 28 24 30 40 46 54 59 61 62 62 62 61 61 63 67 71 72 71 72 75 79 82 82 81 80 80 81 81 81 80 79 78 77 77 77 78 78 79 79 79 79 79 81 83 83 83 82 80 80 79 79 79 79 82 83 83 82 82 82 81 81 80 80 81 81 81 82 83 82
76 74 71 66 62 60 61 61 62 64 69 70 65 58 51 49 45 41 36 35 34 33 33 32 30 28 25 26 30 34 36 37 36 33 28 24 29 38 49 56 60 61 60 61 61 60 59 58 59 61 66 69 69 70 72 76 77 76 74 74 74 76 78 79 78 78 77 76 76 76 76 77 77 77 77 78 80 81 81 82 81 81 80 79 78 78 78 80 81 82 81 81 81 81 80 80 81 81 80 81 83 83 83
73 69 64 58 55 55 58 62 65 70 75 77 72 64 55 52 48 43 38 36 35 34 33 31 30 27 23 22 26 32 36 36 36 33 29 25 29 39 51 58 60 60 59 59 59 58 58 54 51 49 53 63 67 68 67 70 71 70 66 64 63 64 67 70 73 76 75 75 74 74 74 75 76 76 77 77 78 79 80 80 81 81 80 79 78 77 78 79 80 81 80 80 79 80 80 80 81 81 82 83 84 83 82
71 66 60 55 54 55 60 65 70 74 79 81 77 70 59 54 49 45 40 38 37 35 34 31 31 29 24 20 23 30 36 36 35 33 29 27 32 41 54 59 60 58 57 57 56 56 55 51 42 35 35 51 62 68 66 66 66 65 62 57 54 52 52 55 62 68 74 74 74 73 72 72 73 74 74 75 76 77 78 80 81 81 81 81 80 79 78 79 80 81 80 80 80 80 80 80 81 83 84 84 84 82 82
70 66 61 57 57 60 65 69 72 75 78 80 79 74 63 56 51 46 42 40 38 37 35 32 31 30 26 21 23 28 35 35 35 33 30 29 34 43 55 60 59 57 54 54 54 53 53 49 38 26 18 33 51 66 71 68 65 62 58 53 49 45 43 43 47 54 64 70 71 71 73 71 72 72 72 74 75 76 76 78 79 80 80 80 80 79 78 79 80 81 81 81 80 80 81 80 81 83 84 84 82 80 80
70 67 65 62 63 67 71 72 73 74 76 77 77 74 65 57 52 48 45 42 40 37 35 32 31 29 27 23 24 27 34 35 35 33 32 31 35 44 55 59 59 55 52 52 52 53 53 51 43 30 15 17 31 49 63 64 60 54 46 41 39 38 38 36 36 41 55 64 69 70 68 69 70 70 71 70 72 74 75 76 77 78 79 79 79 79 78 79 80 81 82 82 81 81 80 80 80 80 81 81 80 79 78
71 70 70 69 70 72 76 75 75 74 72 73 73 71 65 58 53 50 47 44 41 38 35 31 29 27 26 24 24 27 33 36 36 35 34 34 38 44 54 57 56 54 50 49 50 52 53 53 49 40 27 17 17 24 36 40 39 34 27 24 24 27 29 28 26 27 36 53 62 65 67 65 65 65 64 67 71 74 75 76 77 78 78 79 79 79 78 76 77 79 83 82 82 81 80 80 80 79 78 79 78 77 77
73 73 73 73 74 75 78 77 76 73 70 69 68 67 64 58 54 51 49 46 42 38 36 32 28 25 25 25 24 26 32 36 36 35 35 36 39 44 50 52 52 51 49 48 49 51 52 51 49 44 37 27 19 15 16 18 18 17 14 13 15 17 20 19 18 16 16 32 47 58 63 62 61 61 63 64 67 71 73 76 77 78 78 79 80 80 78 76 76 78 82 83 82 81 79 78 78 79 79 78 78 77 78
74 75 75 76 76 76 78 78 76 73 70 67 65 64 62 58 54 52 50 48 44 40 38 34 30 26 26 26 24 25 31 36 36 35 35 37 39 42 45 46 47 47 47 47 47 49 49 48 46 42 39 35 29 21 13 12 11 11 11 11 12 13 14 13 12 10 8 12 23 37 49 55 57 57 56 58 61 65 70 74 77 78 78 79 80 80 79 76 74 74 79 81 82 82 80 78 77 77 78 78 79 79 81
74 75 75 76 76 76 77 78 77 75 71 67 64 62 61 57 55 53 51 48 45 42 40 37 32 28 27 27 25 25 30 35 36 36 36 37 39 41 42 43 44 45 45 45 46 46 46 45 42 40 38 38 35 29 20 14 12 12 12 12 12 12 11 11 10 8 7 5 8 14 25 36 45 50 51 54 57 60 66 71 75 77 78 79 80 81 80 78 75 73 74 78 79 80 80 78 76 76 77 78 79 81 82
74 75 75 76 76 77 77 78 78 77 74 69 64 61 59 57 55 53 51 48 45 43 41 39 35 30 27 27 26 25 28 34 36 36 36 37 38 40 42 43 44 44 44 44 44 44 43 41 39 38 37 38 38 36 29 21 16 13 13 13 12 12 12 11 9 8 6 5 4 5 8 16 24 32 40 45 49 54 61 68 73 75 77 78 79 80 80 79 77 75 73 74 75 77 78 77 77 77 77 79 80 81 83
73 75 74 75 76 77 77 77 78 78 77 72 66 62 59 57 55 53 50 48 45 43 41 39 36 32 27 27 26 26 27 32 35 36 36 37 38 39 41 43 44 45 45 44 43 42 40 39 38 38 38 38 39 39 37 30 24 20 17 15 14 14 13 12 10 8 7 5 4 4 4 5 8 14 21 27 33 40 50 59 66 72 75 76 77 78 80 80 78 76 74 73 73 74 76 76 77 78 79 80 80 81 82
73 74 74 75 76 77 77 77 78 78 78 74 69 63 60 57 54 52 50 48 46 43 40 39 37 33 28 27 26 26 26 29 33 36 36 36 37 38 39 41 43 45 45 44 42 41 39 38 38 38 39 39 40 40 40 36 31 27 25 22 20 19 17 15 13 11 8 6 5 4 4 3 3 4 6 10 15 21 30 41 53 63 70 73 76 78 79 79 78 77 75 74 73 73 73 75 77 79 80 80 80 81 81
72 73 74 75 76 76 76 77 77 78 77 75 70 64 61 57 54 52 50 49 46 43 40 38 36 33 29 27 26 26 26 27 31 35 36 36 36 36 37 38 40 42 44 43 42 40 39 38 38 39 39 40 40 41 41 38 34 31 32 30 29 27 24 20 17 14 11 8 6 4 4 4 4 3 3 3 4 7 11 21 33 46 58 66 72 76 79 79 78 76 76 75 75 74 73 75 76 78 79 79 79 79 79
70 72 73 74 75 76 76 76 76 76 76 73 69 65 62 58 55 52 51 50 48 45 42 38 35 32 29 26 25 26 28 27 28 32 36 36 35 35 35 35 36 38 41 41 40 39 39 39 39 39 39 40 41 41 41 38 35 32 34 35 35 33 30 26 22 18 14 11 8 5 4 4 4 4 3 3 2 2 3 7 15 27 42 55 66 74 79 80 79 77 76 76 76 76 76 76 76 76 76 77 77 77 77
69 71 72 73 74 75 75 75 75 75 75 72 68 64 63 59 56 54 53 51 50 47 44 39 34 30 27 24 23 24 27 27 28 29 33 35 35 34 34 33 34 35 37 38 38 39 39 40 39 39 40 40 41 41 41 39 35 33 33 36 36 35 33 29 25 20 16 12 9 6 5 4 4 4 4 3 3 3 2 2 6 13 27 43 58 70 78 80 79 79 78 78 78 77 76 76 75 75 74 74 75 75 76
68 69 71 72 73 73 74 74 74 74 74 71 67 64 65 61 58 56 55 54 52 49 46 41 35 28 24 22 21 22 26 27 28 29 30 33 34 34 33 32 33 34 35 36 37 38 40 40 40 40 40 41 41 41 40 38 35 32 32 35 35 35 32 28 24 20 16 13 10 7 5 5 5 5 4 4 4 3 3 2 3 7 16 32 48 63 74 77 79 79 78 78 77 76 76 74 73 73 72 72 73 74 74
67 68 69 70 71 72 73 73 73 73 74 72 68 65 65 63 60 58 57 56 54 51 47 41 35 28 23 22 21 22 24 27 28 29 29 31 32 33 33 32 32 34 35 36 37 39 41 41 40 40 40 41 41 40 39 38 35 32 30 33 34 33 31 26 22 19 16 13 10 8 7 6 5 5 5 5 4 4 4 3 3 4 9 24 39 54 66 71 75 77 76 76 75 74 73 72 71 71 70 72 73 74 74
66 68 69 69 70 71 72 72 72 73 74 72 69 66 65 64 62 60 59 58 56 52 47 41 34 28 24 23 23 23 24 26 28 29 29 29 31 32 33 32 32 33 35 36 38 39 41 41 40 40 40 40 40 40 39 37 34 31 29 31 32 31 29 25 22 19 16 14 12 10 8 7 6 6 6 6 5 5 4 4 3 3 5 17 30 44 55 61 66 70 71 71 70 70 69 68 68 68 68 70 72 74 75
66 68 69 69 69 70 71 71 72 72 74 73 71 68 66 65 63 61 60 60 57 54 47 40 33 28 26 27 26 25 24 26 28 29 29 29 30 32 34 33 33 33 34 35 37 39 41 41 41 40 40 40 40 39 39 37 35 32 29 29 29 28 27 23 21 18 17 15 13 10 9 7 7 7 7 7 6 5 5 4 4 4 4 11 22 34 44 50 55 60 62 63 63 63 63 63 63 64 66 69 72 74 75
65 67 69 69 69 70 71 71 71 72 74 73 72 69 67 66 64 62 61 60 58 54 48 40 34 29 28 30 31 30 28 28 29 30 30 29 30 33 35 36 35 34 34 34 35 37 39 40 41 41 40 40 40 40 40 39 37 33 30 28 27 26 25 22 19 17 16 14 13 11 9 8 8 7 7 7 7 6 5 4 4 4 4 7 14 23 33 37 43 48 51 54 54 54 55 56 58 60 63 69 72 73 75
63 65 68 69 69 70 70 71 71 72 73 73 72 71 69 67 65 63 62 61 59 55 49 42 36 32 30 34 35 35 34 31 31 31 31 29 31 35 38 38 38 36 35 34 33 34 36 39 41 41 41 41 41 41 41 41 38 35 31 28 26 25 24 21 19 17 15 13 12 11 10 9 8 8 8 8 7 7 5 5 4 5 5 6 9 13 20 22 28 34 41 44 45 46 48 50 53 56 61 66 70 73 75
60 62 65 68 69 70 70 70 71 72 73 73 73 72 70 69 67 65 64 63 62 58 51 44 38 34 33 36 38 39 38 34 32 32 31 31 34 38 40 40 40 39 37 35 33 32 33 37 40 42 42 43 43 43 42 42 40 37 32 29 27 26 25 23 20 18 15 14 13 12 10 10 9 8 8 8 8 7 6 5 5 5 6 6 7 8 11 12 14 19 27 31 33 35 36 36 39 45 54 62 67 71 73
59 59 62 66 68 70 70 70 71 72 73 73 73 72 71 70 68 67 66 66 64 60 53 46 40 37 35 38 40 41 41 37 34 31 30 33 37 41 42 41 41 40 39 38 36 34 33 36 38 40 42 42 43 43 43 42 41 38 33 30 28 27 26 25 23 21 19 16 15 13 12 11 10 9 9 9 8 8 8 6 5 5 6 7 7 8 8 9 9 11 14 17 18 19 19 18 19 23 33 46 58 67 72
59 59 60 64 67 69 70 70 71 72 73 73 73 72 72 71 70 68 68 67 65 61 53 47 43 40 38 39 40 41 42 38 35 32 32 34 38 42 45 42 41 41 40 39 38 37 35 36 37 38 38 40 41 42 43 43 41 38 34 30 28 26 26 26 26 25 23 21 19 17 15 14 13 11 10 10 9 9 9 7 6 5 6 7 8 9 10 10 10 11 12 13 14 13 10 12 15 16 13 30 47 63 71
61 60 60 63 65 68 69 69 70 71 72 73 72 72 72 71 70 69 69 68 65 61 54 50 46 44 42 41 41 42 42 40 36 33 34 36 37 39 45 41 40 40 40 39 38 37 36 35 34 33 33 34 36 38 40 40 39 36 33 29 27 26 25 26 28 28 27 25 23 22 20 19 17 15 14 13 12 11 10 9 8 6 5 7 9 11 13 13 14 15 16 18 18 17 18 28 30 24 14 14 27 45 63
63 62 61 63 64 66 68 68 70 71 72 73 73 73 72 71 71 70 70 69 66 62 56 52 49 48 46 46 45 44 43 41 38 34 31 35 38 39 39 37 36 40 55 40 36 35 33 32 30 27 27 27 29 31 33 34 34 33 31 29 27 25 25 27 28 29 29 28 26 25 24 23 22 21 19 17 15 14 13 12 11 9 7 6 8 10 13 15 15 17 19 18 17 22 37 44 38 26 16 10 12 22 45
65 64 63 63 64 65 66 68 69 70 72 73 74 74 72 72 71 71 70 69 66 62 57 54 51 49 50 49 49 47 45 43 39 35 31 32 36 37 35 40 40 40 47 40 38 36 29 30 29 27 24 24 24 25 26 28 29 29 28 27 26 26 26 28 30 30 30 29 27 26 25 25 25 25 23 22 20 18 16 15 14 12 9 7 8 9 12 13 14 15 15 15 25 40 56 50 38 25 17 12 9 12 22
67 66 65 64 64 64 65 67 68 69 71 73 74 74 73 72 72 71 70 69 66 63 58 55 52 50 49 50 49 48 46 43 40 37 33 31 33 37 39 48 54 62 77 57 42 34 35 38 33 27 24 24 23 22 22 23 24 24 25 25 25 26 27 29 31 31 30 28 26 26 25 26 26 27 27 26 24 22 20 19 17 15 12 10 9 9 11 12 13 13 12 23 41 57 65 51 37 25 18 14 10 11 18
70 68 67 66 65 65 65 65 67 69 70 72 73 74 74 73 72 72 71 69 67 64 60 56 54 51 49 48 48 47 46 43 40 37 34 32 31 35 49 72 87 90 80 67 54 44 41 54 49 35 26 24 24 23 22 21 21 22 22 23 24 25 27 29 30 30 29 27 27 27 27 27 28 28 28 28 27 26 24 22 20 17 15 13 11 10 11 12 12 12 16 37 55 67 66 54 41 29 21 16 12 13 21
71 70 69 68 67 66 65 65 66 68 70 71 73 74 74 73 73 72 71 70 68 65 62 59 56 53 51 48 46 46 45 42 39 37 35 33 30 28 28 46 53 55 54 53 51 53 63 59 58 52 36 30 28 27 25 24 23 22 22 22 24 25 27 28 29 29 29 28 28 29 29 29 30 30 30 29 29 28 27 25 22 20 18 15 13 13 12 12 11 14 25 50 63 67 61 53 43 33 22 16 12 16 31
73 72 71 70 68 67 66 65 66 67 69 71 73 74 74 74 73 73 72 70 68 66 64 61 58 55 53 50 47 45 43 41 38 36 34 33 31 29 26 26 35 45 44 48 48 52 64 58 53 47 38 34 32 30 29 28 27 26 25 25 25 26 27 29 30 30 30 30 30 30 31 31 31 31 31 31 31 30 29 28 25 23 20 18 16 15 14 13 13 20 40 59 63 57 48 43 36 27 17 14 14 22 42
74 73 72 71 70 69 68 67 66 67 69 70 72 74 75 74 74 74 73 71 69 67 65 63 60 58 55 53 50 46 43 40 38 36 34 33 32 30 28 26 29 32 33 48 50 52 63 66 59 49 42 37 34 33 33 32 32 31 30 29 29 29 30 31 31 32 32 33 33 33 33 33 33 33 33 33 32 32 31 30 28 26 23 21 19 17 16 14 18 31 54 62 56 44 34 28 21 15 11 13 17 29 54
74 74 74 73 71 71 69 68 67 68 68 70 72 74 75 75 75 74 73 72 71 69 66 64 62 60 58 56 53 49 45 41 39 37 35 34 33 31 30 27 27 29 34 39 43 47 55 60 59 54 47 41 37 35 34 34 33 33 33 33 33 33 33 33 33 33 34 34 34 34 34 34 34 34 33 34 34 33 33 32 31 29 26 23 21 20 18 17 27 44 65 61 50 37 26 19 14 10 9 14 22 35 58
75 75 75 74 73 72 71 70 69 69 69 70 72 74 76 76 75 74 74 73 72 70 68 66 64 63 61 59 56 53 49 45 41 38 37 37 35 32 31 29 27 28 30 35 39 42 45 50 56 58 51 48 45 40 37 36 35 34 34 34 35 35 35 35 35 35 35 35 35 35 35 34 34 34 34 34 34 34 34 34 33 31 29 27 24 22 20 23 38 56 70 63 52 40 28 19 13 10 12 19 29 43 62
76 76 76 75 74 73 73 72 71 71 71 71 73 74 75 75 75 75 74 74 73 71 70 68 66 64 63 62 60 58 55 51 46 41 38 38 35 33 31 30 28 28 30 35 38 41 43 44 44 45 47 58 55 47 44 43 39 36 35 35 35 36 36 35 35 35 35 35 35 35 35 35 35 35 35 35 35 35 35 35 34 33 32 30 27 25 22 29 46 64 75 70 59 46 32 21 14 11 14 26 39 54 71
Wind_Speed
14 14 14 14 14 14 13 13 12 12 12 12 11 11 11 11 11 11 11 10 10 10 10 10 10 9 9 9 9 9 9 10 10 10 10 11 11 12 14 14 14 13 11 11 10 9 9 9 9 9 10 10 11 12 13 14 14 14 13 13 13 12 12 11 11 11 11 11 11 11 11 12 12 13 12 12 12 11 11 11 10 10 10 10 10 9 9 9 9 10 10 10 9 9 10 12 13 13 12 11 10 10 10
14 14 14 14 14 13 13 12 12 11 11 11 11 11 10 10 10 10 10 10 10 10 10 10 10 9 9 9 9 9 9 10 10 10 10 11 12 13 14 15 14 12 11 11 10 9 9 9 9 10 10 11 12 14 15 16 15 14 13 13 12 12 11 11 10 11 11 11 11 11 12 12 13 13 12 12 12 12 11 11 11 11 11 10 10 9 9 9 9 9 10 10 10 10 10 11 11 11 11 11 10 10 10
14 14 14 13 13 12 12 11 11 10 10 10 10 10 10 10 10 10 10 10 10 10 10 9 9 9 9 9 9 9 9 9 10 10 10 11 12 14 15 14 13 12 11 11 10 10 10 10 10 10 11 13 14 16 17 16 15 14 13 12 12 11 11 10 10 10 11 11 11 12 12 13 13 12 12 12 12 12 12 12 11 11 11 11 10 10 10 9 9 9 9 10 10 10 10 10 11 11 11 10 11 11 11
13 13 13 12 12 11 11 11 11 11 11 11 11 11 10 10 10 10 10 10 10 10 10 9 9 9 9 9 9 8 8 9 9 10 11 12 13 14 14 14 13 11 11 11 10 10 11 11 11 11 12 13 15 16 17 16 14 13 13 12 12 11 10 10 10 10 11 11 12 12 12 12 12 12 12 12 12 12 12 12 12 12 12 11 11 11 10 9 9 9 9 9 10 10 10 10 10 11 11 11 11 12 11
13 13 12 12 12 11 11 11 11 11 11 11 11 11 10 10 10 10 11 10 10 10 9 9 9 9 8 8 8 8 8 8 9 10 11 12 13 14 14 13 12 11 11 11 10 11 11 11 11 11 12 14 15 16 16 15 14 13 12 12 11 10 10 10 10 10 11 11 12 11 11 11 11 11 11 11 11 11 12 12 12 12 12 12 11 11 11 10 10 9 9 10 10 10 10 10 10 10 10 10 11 12 12
14 13 13 12 12 12 12 12 12 12 12 11 11 11 11 10 10 10 10 10 10 10 10 9 9 8 8 7 7 8 8 8 9 10 11 12 13 14 13 12 11 11 11 11 11 11 11 11 11 12 13 14 15 16 15 14 14 13 12 12 11 11 10 11 11 11 11 11 11 11 11 11 10 10 10 11 11 11 11 11 11 11 12 12 11 12 12 12 11 11 11 11 10 10 10 10 10 10 10 9 9 10 11
14 14 14 13 13 13 12 12 12 11 11 11 11 11 10 10 10 10 10 9 9 9 9 9 8 8 8 7 7 7 7 7 8 10 12 13 13 14 13 12 11 11 11 11 11 10 10 11 11 12 13 14 15 15 15 14 13 13 12 12 11 11 11 11 11 11 11 11 11 10 11 10 10 10 10 10 10 10 10 11 10 11 11 11 11 12 12 12 12 12 12 12 11 10 10 10 9 9 9 8 8 8 9
15 15 15 14 13 13 12 12 11 11 11 10 10 10 10 9 9 9 9 9 8 8 8 8 8 8 8 7 7 7 6 6 8 10 12 13 14 14 13 12 11 12 12 11 11 10 10 10 11 12 13 14 15 15 14 13 13 12 12 12 11 11 11 11 11 11 11 10 10 10 10 10 10 10 10 10 10 10 10 10 10 10 10 10 11 11 12 13 13 13 12 12 11 10 10 11 11 10 10 9 10 10 10
14 14 15 14 13 13 12 12 11 11 10 10 10 10 10 9 9 9 8 8 8 7 7 8 8 8 8 8 7 7 6 5 7 10 13 14 14 14 13 12 12 12 12 12 11 11 10 10 11 12 13 14 15 14 13 12 12 11 11 11 10 10 10 10 10 11 10 10 10 10 10 10 10 10 10 10 10 10 9 9 9 9 9 10 10 11 11 12 12 13 12 12 12 11 11 12 12 12 12 11 12 12 11
14 13 13 14 14 13 12 11 11 11 10 10 11 11 10 10 9 9 8 8 7 7 8 8 8 8 8 8 7 6 5 5 7 10 13 14 14 14 13 12 12 12 12 12 11 11 10 10 11 13 14 14 14 14 13 12 11 10 10 9 9 9 9 9 10 10 10 10 10 10 10 10 10 10 10 10 10 10 9 9 9 9 9 9 10 10 11 11 11 11 12 12 11 11 11 11 11 11 12 11 11 11 10
15 14 13 14 14 14 12 11 11 11 11 11 11 11 10 10 9 9 8 8 8 8 8 8 8 8 8 7 7 6 5 5 7 11 13 14 15 14 13 12 12 12 12 11 11 10 10 10 12 13 14 14 14 13 12 11 10 10 9 9 8 8 8 8 8 9 9 9 9 9 9 10 10 10 10 10 10 10 10 9 9 9 8 8 9 10 10 10 11 11 11 11 11 11 11 10 11 11 11 11 10 10 10
16 15 14 13 14 14 12 11 11 11 11 11 11 10 10 10 10 9 8 8 8 8 8 9 9 8 8 7 7 5 4 5 8 12 14 15 15 15 14 13 12 11 11 11 10 10 10 11 12 14 14 14 14 13 12 11 10 10 9 9 8 8 8 8 8 8 8 8 9 9 9 10 10 10 10 10 10 10 10 10 9 9 8 8 8 9 9 10 10 10 11 11 11 10 10 10 10 10 10 10 10 10 10
16 15 14 12 12 12 12 11 11 11 11 11 11 11 11 10 10 9 8 8 8 8 9 9 9 8 8 8 7 5 4 6 9 13 14 15 15 15 14 13 12 11 10 10 10 10 10 11 13 14 14 14 13 12 11 11 10 10 9 9 9 9 9 9 9 9 9 9 9 9 10 10 10 10 10 10 10 10 10 10 10 10 9 8 8 8 9 9 9 10 10 10 10 10 10 10 10 10 10 10 10 10 9
15 14 13 13 12 11 12 12 12 12 12 12 12 12 11 10 9 8 8 7 7 8 8 9 8 8 8 7 6 6 5 8 11 14 15 15 15 15 14 13 11 10 10 9 9 10 11 12 14 14 14 13 13 12 11 11 10 10 9 9 9 10 10 9 9 9 10 9 9 10 10 10 10 10 10 10 10 10 10 10 10 10 10 9 8 8 8 9 9 9 10 10 10 10 10 10 9 9 9 9 9 9 9
14 14 13 13 12 12 12 13 14 14 14 15 15 14 12 11 9 9 8 7 7 7 8 8 8 7 7 6 6 6 7 11 13 15 15 15 15 15 14 13 11 10 9 9 9 9 11 13 14 14 14 13 12 12 11 11 10 10 10 10 10 9 9 9 9 9 9 9 9 9 9 9 9 9 9 9 9 9 10 10 10 10 10 9 9 8 8 9 9 9 9 9 9 10 10 9 9 9 9 9 9 9 9
15 14 14 13 13 13 13 14 15 15 14 15 14 14 13 11 10 9 8 7 7 7 7 8 8 8 7 6 7 8 10 13 15 15 14 15 15 15 14 12 11 10 9 9 9 10 11 14 14 14 14 13 12 11 11 10 10 10 9 9 9 9 9 9 9 9 9 9 9 9 9 9 9 9 9 9 9 9 9 10 10 10 10 10 9 9 9 9 9 9 9 9 9 9 10 9 9 9 9 9 10 10 10
15 14 15 14 14 13 14 14 15 14 12 12 12 12 13 11 10 8 8 7 7 7 8 9 10 9 9 9 9 10 13 15 16 15 14 15 15 15 14 12 11 10 9 9 9 10 12 14 14 14 13 13 12 11 11 10 10 9 9 9 9 8 8 8 8 8 8 8 8 8 8 8 9 9 9 9 9 9 9 9 10 10 10 10 9 9 9 9 9 9 9 9 9 10 10 10 10 10 10 10 10 10 10
15 15 15 15 14 14 14 14 13 11 10 11 11 11 11 10 9 8 7 7 7 8 10 11 11 11 10 10 10 11 14 16 16 15 14 15 15 15 13 12 10 9 9 9 9 10 12 14 14 14 13 13 12 11 11 10 10 9 9 9 9 8 8 8 8 8 8 8 8 8 8 8 8 8 8 9 9 10 10 10 9 9 9 9 9 9 9 9 9 9 9 10 10 10 10 10 10 10 10 10 10 10 10
15 15 16 16 15 14 13 12 11 10 10 11 11 10 10 9 8 8 8 8 9 10 11 11 11 10 10 10 10 11 13 14 14 14 14 15 15 15 13 11 10 9 9 8 8 10 12 14 14 14 13 12 12 11 10 10 9 9 9 9 9 9 9 9 9 9 9 8 8 8 8 8 8 8 8 8 9 9 10 9 9 9 9 9 9 9 9 9 9 9 9 9 9 9 9 9 10 10 10 10 9 10 10
15 16 17 17 16 14 13 11 10 9 10 11 11 10 9 8 8 9 10 11 11 11 11 11 10 10 10 10 10 10 11 12 12 13 13 15 15 14 12 11 10 9 9 8 9 10 12 14 14 14 13 13 12 11 10 9 9 8 9 9 9 9 9 9 9 9 9 9 8 8 8 8 8 8 8 8 8 9 9 9 9 9 9 8 8 8 8 8 9 9 9 9 9 9 9 9 9 9 9 9 9 9 9
16 16 17 17 16 15 13 11 10 10 11 12 12 11 10 10 10 11 13 13 12 11 11 10 10 10 10 10 9 9 9 10 10 11 12 14 15 14 12 11 10 10 9 9 9 10 12 14 14 14 13 13 12 11 10 9 8 8 8 9 9 9 9 9 9 9 9 9 9 9 8 8 8 8 7 7 7 7 8 8 8 8 8 8 8 8 8 8 8 8 8 8 8 8 8 8 8 8 8 8 8 8 9
16 17 18 18 17 15 13 12 11 11 12 12 12 11 11 11 13 14 14 13 12 11 11 10 9 9 9 9 9 9 8 8 8 9 11 14 15 14 12 11 10 10 9 9 9 10 12 13 14 14 14 13 13 12 11 9 8 8 8 8 9 9 9 9 8 8 9 9 9 9 9 8 8 8 7 7 7 7 7 7 7 8 8 8 8 7 7 7 7 7 8 8 8 8 8 8 8 8 8 7 8 8 8
16 17 17 18 17 15 14 13 12 12 12 12 11 11 12 13 14 15 14 13 12 11 10 9 9 9 9 9 9 9 8 7 7 7 9 13 15 14 12 11 10 10 10 10 10 10 12 13 14 13 13 14 13 13 12 10 9 8 8 8 8 8 8 8 8 8 8 8 9 9 9 8 8 8 7 7 7 7 7 6 7 7 7 7 7 7 7 7 7 7 7 7 7 7 7 7 7 7 7 7 7 7 7
16 17 17 17 16 15 14 13 13 13 12 12 12 12 13 14 14 14 13 12 11 10 10 9 8 8 8 8 9 9 8 7 6 6 7 12 14 14 12 11 10 10 10 10 10 10 11 13 13 13 13 13 13 13 12 11 10 10 9 9 8 8 8 8 8 8 7 7 8 8 8 8 8 7 7 7 7 7 6 6 6 6 6 6 6 7 7 7 7 7 7 7 7 7 7 7 7 7 7 7 7 7 7
16 16 16 16 16 16 15 14 14 13 13 13 12 12 13 14 14 13 13 12 11 10 9 9 8 8 8 8 8 9 8 7 6 5 6 10 14 14 12 11 11 10 10 10 10 10 10 11 12 12 12 12 12 12 12 12 12 11 10 9 9 8 8 8 8 7 7 7 7 7 7 7 7 7 7 6 6 6 6 6 6 6 6 6 6 6 6 6 6 6 6 6 6 6 6 6 6 6 6 6 7 7 7
16 16 15 15 15 16 16 15 14 14 14 13 13 13 13 13 13 13 12 11 11 10 9 8 8 7 7 8 8 9 9 8 6 5 5 10 13 15 13 12 11 11 10 10 9 9 9 9 10 11 11 11 11 11 12 12 12 12 11 10 9 9 8 8 7 7 7 7 6 6 6 6 6 6 6 6 6 6 5 5 5 5 5 5 5 5 5 6 6 6 6 6 6 6 6 6 6 6 6 6 6 6 6
16 16 15 15 15 16 16 16 15 15 15 14 14 13 13 13 13 12 12 11 10 10 9 8 8 7 7 8 9 9 9 8 6 6 6 10 14 15 14 13 12 11 10 9 9 8 8 8 8 9 10 11 11 11 12 12 12 11 11 10 9 9 8 8 7 7 6 6 6 6 6 6 6 6 6 6 5 5 5 5 5 5 5 5 5 5 5 5 5 5 5 5 5 5 5 5 5 5 5 5 6 6 6
16 16 15 15 16 17 17 16 16 15 15 15 14 14 13 13 13 12 12 11 10 9 9 8 8 7 8 8 9 10 10 8 7 6 7 11 14 16 15 13 12 11 10 9 8 8 7 6 7 8 9 11 11 11 11 11 11 10 9 9 8 7 7 7 7 7 6 6 5 5 5 5 5 5 5 5 5 5 5 5 4 4 4 4 4 4 4 4 4 4 4 4 4 4 4 5 5 5 5 5 5 6 6
17 16 16 17 17 17 17 16 16 16 15 15 15 14 14 13 13 12 12 11 10 9 9 8 7 7 7 9 10 11 10 9 8 7 8 11 15 16 15 14 13 11 10 9 8 7 6 6 5 6 8 10 11 11 11 10 10 9 8 7 6 6 6 6 6 6 6 5 5 5 5 5 5 4 4 4 4 4 5 5 4 4 4 4 4 4 3 3 3 3 3 3 3 3 4 4 4 5 5 5 5 5 6
18 17 17 18 18 18 17 17 16 16 15 15 15 15 15 14 13 13 12 11 11 10 9 8 7 7 7 8 10 11 11 10 9 8 9 12 15 17 16 14 13 11 10 9 8 7 6 5 5 5 6 8 10 11 11 10 10 9 8 7 7 6 5 5 5 5 5 5 4 4 4 4 4 4 4 4 4 4 4 4 4 4 3 3 3 3 3 3 2 2 2 2 2 3 3 3 4 4 5 5 5 5 5
18 18 18 19 19 18 18 17 16 16 15 15 16 16 16 15 14 13 12 11 11 10 9 8 8 7 7 8 10 12 12 11 10 9 10 11 14 17 17 15 13 11 10 8 7 6 6 5 4 4 4 6 8 10 11 11 10 10 9 8 8 7 6 6 5 4 4 4 4 4 3 3 3 4 4 3 3 3 3 3 3 3 3 3 2 2 2 2 2 2 1 1 2 2 2 2 3 3 4 4 4 4 4
19 19 19 19 19 19 18 17 17 16 16 16 16 16 16 15 14 13 12 11 11 10 9 8 8 7 7 8 9 11 13 12 11 10 10 11 14 16 16 15 12 10 9 8 7 6 6 5 4 3 3 4 6 8 9 10 10 10 9 9 8 8 7 7 6 5 4 4 4 3 3 3 3 3 3 3 3 3 3 3 2 2 2 2 2 2 2 2 2 2 1 1 1 1 1 2 2 2 3 3 3 4 4
20 20 20 19 19 19 19 18 18 17 16 16 16 16 16 15 14 13 12 11 10 9 8 8 8 7 7 7 9 11 13 13 12 11 11 12 13 15 16 14 12 10 9 8 7 7 6 5 4 3 3 3 4 5 7 8 8 8 8 8 7 7 7 7 6 6 6 5 4 4 3 3 3 3 2 2 2 2 2 2 2 2 2 2 1 1 1 1 1 2 2 1 1 1 1 1 2 2 2 3 3 3 4
21 21 20 20 19 19 19 19 18 17 17 16 16 16 16 16 15 14 13 11 10 9 9 8 8 7 7 8 9 11 13 14 13 12 12 12 13 13 14 13 12 10 9 8 8 7 7 6 5 4 4 4 4 4 5 5 6 6 7 6 6 6 6 6 6 6 6 6 5 5 5 4 3 3 3 2 2 2 2 2 2 1 1 1 1 1 0 0 0 1 1 1 1 1 1 1 2 2 2 3 3 3 3
22 21 21 20 19 19 20 20 19 18 17 16 16 16 16 16 15 14 13 12 11 10 10 9 9 8 8 8 9 11 13 15 14 14 13 12 12 12 13 12 12 11 10 9 8 8 7 6 6 5 5 4 4 4 4 4 4 5 6 6 6 6 6 5 5 5 5 6 6 5 5 5 4 4 4 3 3 3 2 2 1 1 1 1 1 1 0 0 1 0 0 1 1 1 1 2 2 2 3 3 3 3 3
22 22 22 21 21 20 20 20 19 18 17 17 16 16 16 16 16 15 14 13 12 12 11 10 10 9 9 9 9 11 13 15 15 15 13 13 12 12 12 12 11 11 10 10 9 9 8 7 6 6 5 5 5 4 4 3 4 4 5 5 6 6 6 5 5 5 5 5 5 5 6 5 5 5 4 4 4 4 3 3 2 1 1 1 1 1 0 0 1 1 1 1 1 1 2 2 2 3 3 3 3 3 4
22 22 22 22 21 21 21 20 19 18 18 17 17 17 17 17 16 16 15 14 14 13 12 11 11 10 10 10 10 11 13 15 16 15 14 13 13 12 12 12 11 11 11 10 10 9 8 7 6 6 6 6 6 5 4 4 4 4 5 5 6 6 6 6 5 5 5 4 5 5 5 6 6 5 5 5 5 5 5 5 4 3 1 0 0 0 1 1 1 1 1 2 2 2 2 2 3 3 3 3 4 4 4
23 23 23 23 22 21 21 20 19 19 18 18 18 18 18 18 17 17 16 15 15 14 13 12 12 11 10 11 11 11 13 15 16 16 15 14 13 13 13 12 12 12 11 11 11 10 9 8 7 7 7 7 7 6 5 5 5 5 5 6 6 6 6 6 6 5 5 4 4 5 5 5 6 6 6 5 5 6 6 6 6 5 4 2 1 1 1 1 1 1 2 2 2 2 2 2 3 3 3 4 4 4 5
23 23 23 23 23 22 21 20 19 19 18 18 19 19 19 18 18 17 17 16 15 14 14 13 12 11 11 11 11 12 12 14 16 16 16 15 14 13 13 13 13 12 12 12 11 10 9 8 8 8 8 8 8 7 7 6 6 6 6 7 7 6 6 6 6 6 5 5 5 5 5 5 5 6 6 6 6 6 6 7 7 7 6 4 2 1 1 1 1 2 2 2 2 2 2 3 3 3 3 4 4 5 5
23 23 24 24 23 22 21 20 20 19 18 18 19 19 20 19 19 18 18 16 16 15 14 13 13 12 12 12 12 12 13 14 15 16 16 15 14 13 13 12 13 13 13 13 12 11 10 9 9 9 9 9 9 8 8 8 7 7 7 7 7 7 7 6 6 6 5 5 5 5 5 5 6 6 6 6 6 6 6 7 8 8 8 6 4 3 2 2 2 2 2 2 2 2 3 3 3 3 4 4 5 5 6
23 23 24 24 23 22 21 21 20 20 19 18 19 20 20 20 20 19 18 17 16 15 14 14 13 13 13 13 13 13 13 14 14 15 15 15 14 13 13 13 13 13 13 13 13 12 11 10 10 10 10 10 9 9 9 9 9 8 8 8 8 7 7 6 6 6 5 5 5 5 6 6 6 6 6 6 6 6 7 7 7 8 9 8 6 4 3 2 2 2 2 2 2 2 3 3 4 4 4 5 5 6 6
24 24 24 24 23 22 21 21 21 20 19 19 20 21 21 21 21 20 19 18 17 16 15 14 14 14 14 14 14 14 14 14 14 14 15 15 15 14 13 13 13 13 13 13 13 12 11 11 10 10 10 10 11 11 11 10 10 10 10 9 9 8 7 7 6 6 6 5 6 6 6 7 7 7 7 7 7 7 7 7 7 8 9 9 7 6 5 3 2 2 2 2 2 3 3 3 4 4 5 5 6 6 7
24 24 24 24 23 22 22 21 21 21 20 20 21 21 22 22 21 20 19 18 17 17 16 15 14 14 14 14 15 15 15 14 14 14 14 14 14 14 14 14 13 13 13 13 13 12 11 11 11 11 11 11 12 12 12 12 12 11 11 10 10 9 9 8 8 7 7 6 6 6 7 7 7 7 7 7 7 7 7 7 7 8 9 10 9 8 7 6 4 2 2 2 2 3 3 4 4 5 5 6 6 7 7
25 25 25 24 23 23 22 22 22 22 21 21 21 22 23 22 21 21 19 18 18 17 16 16 15 15 15 15 15 15 15 15 14 13 13 13 13 14 14 14 14 14 13 13 13 13 12 11 11 11 12 12 13 13 13 13 13 12 12 12 11 11 10 10 10 9 9 8 8 8 8 8 8 8 8 8 8 8 8 8 8 8 9 10 10 10 9 9 7 5 3 2 3 3 4 4 5 6 6 7 7 7 7
27 26 25 24 24 23 23 22 22 22 23 22 22 22 23 23 22 21 20 19 18 17 17 16 15 15 15 15 15 15 15 14 13 13 12 12 13 13 13 14 14 14 13 13 13 13 13 13 12 12 12 13 13 14 14 14 13 13 13 13 13 12 12 12 11 11 11 10 10 9 9 9 9 9 9 9 9 9 9 9 8 9 10 11 11 11 11 11 10 8 5 4 3 3 4 5 6 6 7 7 8 8 8
28 27 26 25 24 24 23 23 23 23 24 24 23 23 23 23 23 22 21 19 18 17 17 17 16 15 15 15 15 14 13 13 12 12 12 12 12 13 13 13 13 13 13 13 14 14 14 14 13 13 13 14 14 14 14 14 14 14 14 14 14 13 13 13 13 12 12 12 12 11 11 10 10 10 10 10 9 9 9 9 9 9 10 11 11 12 12 12 12 11 9 6 4 4 5 5 6 7 8 8 8 8 9
29 28 27 26 25 25 24 24 24 24 25 25 25 25 25 24 24 23 22 20 19 18 18 17 16 16 16 15 14 13 13 12 12 12 12 12 12 12 13 13 13 13 13 13 14 14 15 15 14 14 14 14 15 15 15 15 15 15 15 15 15 15 14 14 13 13 13 13 13 13 12 12 11 11 11 10 10 10 10 10 10 10 10 11 12 12 13 13 13 13 12 9 7 6 5 5 6 7 8 9 9 9 9
29 29 29 27 26 25 25 25 25 25 26 26 26 26 26 25 25 24 23 21 20 19 18 18 17 17 16 16 15 14 13 13 13 13 13 13 12 13 13 12 12 12 12 13 13 14 15 16 16 15 15 16 16 16 16 16 16 16 16 16 16 16 15 15 14 14 14 14 14 14 14 13 13 12 12 11 11 11 11 11 11 10 11 11 12 13 13 13 13 13 13 12 10 8 7 7 7 8 9 10 10 10 10
29 29 29 28 27 26 26 26 26 26 27 27 27 27 26 25 25 24 23 21 20 19 18 18 18 17 17 17 16 15 14 14 14 14 14 13 12 11 11 12 13 13 13 13 13 14 15 16 17 17 17 17 17 17 17 18 18 18 18 17 17 17 16 16 15 14 14 15 15 15 15 15 14 14 13 12 12 12 12 12 11 11 11 11 12 13 14 14 13 13 13 13 12 11 10 8 8 9 10 11 11 11 11
29 29 30 29 28 28 27 27 27 27 27 28 27 27 26 25 24 24 23 21 20 19 19 19 18 18 18 18 18 16 15 15 15 15 14 12 9 7 5 7 10 12 13 14 14 15 16 17 18 19 19 19 19 19 19 19 19 19 19 19 19 19 18 17 16 15 15 16 16 16 16 16 15 15 14 14 13 13 12 12 12 12 12 12 13 13 14 14 13 12 12 12 12 11 10 9 9 10 11 12 12 12 12
29 29 30 30 30 29 28 28 28 28 28 27 27 27 26 25 25 24 23 22 21 21 20 20 19 19 18 18 18 17 16 16 17 16 11 10 10 7 2 2 3 6 10 13 16 17 18 19 20 21 21 21 21 21 20 20 20 21 21 21 21 20 19 18 17 17 17 17 17 17 17 17 17 16 16 15 15 14 13 13 13 13 13 13 13 14 14 14 13 13 12 12 11 10 10 10 10 11 12 13 13 13 13
30 29 30 30 31 30 30 29 29 29 28 27 27 27 27 26 26 25 24 23 23 22 22 21 19 18 19 18 17 17 17 17 18 18 14 13 11 8 4 3 1 2 3 5 9 14 18 20 22 22 23 23 22 22 22 22 22 22 23 23 23 22 21 20 19 19 19 19 19 19 18 18 18 17 17 17 16 16 15 14 13 13 13 13 14 14 15 14 14 13 13 12 11 11 11 11 11 12 12 13 14 14 13
30 30 30 30 31 31 30 30 29 29 28 27 27 27 28 27 27 26 25 24 24 23 23 22 21 19 18 17 17 17 18 18 19 19 17 15 11 7 3 2 1 1 0 1 3 4 9 16 21 24 24 24 24 24 23 23 23 24 24 24 24 24 23 22 21 21 21 21 21 20 20 19 19 18 18 18 18 17 16 16 15 14 14 14 14 15 15 15 15 14 13 12 12 12 12 12 12 12 13 14 14 14 13
31 31 30 30 30 31 31 30 30 30 29 28 27 27 28 29 28 27 27 26 25 24 24 23 22 20 18 17 17 17 19 19 20 20 19 18 12 6 2 1 1 1 1 2 1 3 4 5 11 18 23 24 25 25 25 25 25 25 25 26 25 25 24 24 23 23 23 23 23 22 21 20 20 20 19 20 19 19 18 17 17 16 15 15 15 16 16 16 15 15 14 13 13 13 13 12 13 13 14 14 14 14 13
31 31 31 30 30 31 31 31 30 30 29 29 28 27 28 29 29 28 28 27 26 25 25 25 24 22 20 19 18 19 19 20 21 22 21 20 17 11 3 2 1 2 3 2 1 2 3 3 3 7 14 19 23 25 26 26 26 26 26 27 27 26 26 25 25 25 25 25 24 23 22 22 21 21 21 21 20 20 19 19 18 18 17 17 17 17 17 17 16 16 15 14 14 14 13 13 13 14 15 15 15 14 13
31 31 31 31 31 30 31 31 31 30 30 30 28 27 28 29 29 29 28 27 27 26 26 26 25 24 22 20 20 20 20 21 22 23 22 21 20 17 9 4 3 2 1 1 2 3 3 2 4 4 5 11 16 20 23 25 26 27 27 27 27 27 27 26 26 26 26 25 25 24 24 23 22 22 22 22 21 21 21 20 20 19 19 19 19 18 18 18 17 16 15 15 15 14 14 13 14 15 16 16 15 14 13
30 31 31 31 31 31 31 31 31 31 31 30 29 28 28 29 29 29 28 28 27 27 27 26 26 26 24 22 21 20 20 21 23 24 23 22 21 20 17 10 6 4 3 3 2 2 1 2 2 1 3 5 8 12 17 19 22 24 25 26 26 26 27 27 27 27 27 26 26 25 24 24 24 24 23 23 22 22 21 21 20 20 20 20 20 20 19 19 18 17 16 15 15 14 13 14 14 15 16 16 15 13 13
30 30 31 31 31 31 31 31 31 31 31 31 30 28 28 28 29 29 28 28 28 28 27 26 26 26 25 23 21 20 20 21 23 25 25 24 23 22 21 19 16 12 8 5 3 2 4 3 2 1 2 3 4 6 8 12 15 18 21 22 24 25 26 26 26 26 26 26 26 25 25 24 25 25 24 24 24 23 22 21 21 21 21 22 21 21 20 19 18 17 17 16 15 14 14 14 15 16 16 15 14 13 13
31 30 31 31 31 31 31 31 31 31 31 31 30 29 28 28 29 29 29 29 28 28 27 27 27 26 26 25 22 20 20 22 24 25 25 24 24 24 24 22 20 18 15 12 10 6 3 2 2 1 1 2 3 4 6 8 10 13 15 18 20 22 23 24 25 25 25 25 25 25 25 25 25 25 25 25 25 24 23 22 22 22 22 22 22 22 21 19 18 18 17 16 15 14 15 15 16 16 16 14 13 13 14
31 30 30 31 32 32 32 31 31 31 31 31 30 29 28 28 29 30 29 29 28 28 28 28 27 27 26 25 24 22 21 23 24 25 25 21 20 23 26 25 24 22 19 16 15 13 10 6 4 2 2 1 2 4 4 6 7 9 11 13 15 18 20 22 22 23 23 23 23 24 25 25 25 25 26 26 26 25 25 24 23 23 23 23 23 22 21 20 19 18 17 16 16 16 16 17 17 17 15 14 13 13 14
31 31 30 30 31 32 32 31 31 31 31 31 30 30 30 29 29 29 29 28 28 28 28 28 27 27 27 26 25 24 23 23 23 25 26 21 18 20 25 26 26 25 22 19 17 15 13 13 11 8 4 2 1 1 3 5 6 8 10 12 13 15 18 20 21 21 22 22 22 23 24 25 25 25 26 26 26 26 26 25 25 25 24 24 24 23 22 21 20 19 18 17 17 17 17 18 18 17 16 15 14 14 15
Wind_Direction
132 135 135 134 133 133 131 129 126 125 124 122 120 119 119 118 118 117 115 115 115 115 114 113 111 107 101 96 94 95 98 104 106 105 104 105 106 109 112 114 113 111 108 105 104 105 106 105 101 96 89 83 83 88 94 98 99 97 94 89 85 81 79 78 78 79 80 80 80 81 81 80 78 76 73 71 70 69 68 67 66 64 63 61 61 60 59 59 57 56 57 59 58 54 49 45 46 49 49 51 52 50 46
134 137 138 135 133 132 131 130 128 127 127 125 124 123 123 123 122 121 120 119 119 118 117 115 113 109 103 97 94 95 100 105 107 108 108 108 110 113 115 116 115 112 108 106 107 108 107 105 101 95 89 87 90 95 97 96 94 92 90 87 85 82 81 80 81 82 84 84 83 82 80 78 76 74 72 71 69 68 68 67 67 65 64 63 61 60 59 57 56 55 55 56 59 59 57 53 52 51 51 53 56 56 52
137 137 135 134 133 132 132 133 133 131 131 131 130 130 129 129 128 126 125 125 124 122 120 118 116 113 107 99 94 94 100 107 111 111 112 112 114 117 118 118 116 112 108 107 108 109 108 104 100 94 90 93 97 99 98 95 93 91 90 88 87 85 85 85 85 86 86 87 85 83 80 77 75 74 72 70 68 68 67 67 67 66 64 63 64 63 61 59 57 55 53 54 56 57 58 56 54 53 52 52 55 56 54
141 139 136 135 134 135 135 136 136 136 137 136 135 134 132 133 132 130 128 127 126 125 124 122 120 116 110 102 94 92 98 108 115 116 117 117 118 120 121 120 117 112 108 106 109 112 110 106 100 95 94 99 103 102 99 97 95 94 92 91 89 88 89 89 88 88 88 87 85 83 80 77 75 73 71 69 68 67 66 66 66 65 63 63 65 66 65 64 62 59 56 56 55 54 53 53 52 51 51 49 49 49 50
144 143 140 139 139 139 139 139 139 139 139 139 138 136 134 134 133 132 131 128 125 124 125 125 123 120 115 106 98 93 96 109 118 122 122 121 122 123 123 122 118 113 108 105 108 112 112 108 102 98 99 104 106 105 101 99 98 97 94 92 91 91 92 91 89 89 88 86 84 82 79 77 75 73 71 69 67 66 65 65 64 62 61 62 66 69 67 66 65 65 63 59 57 55 52 51 51 50 50 47 45 44 46
146 145 144 142 140 140 140 140 140 140 140 139 138 136 134 133 133 133 132 127 122 119 120 122 123 122 118 111 104 97 97 110 121 126 127 126 126 126 125 122 118 113 107 105 109 114 114 110 104 102 104 109 109 107 103 101 100 98 96 92 90 90 91 90 89 88 87 85 83 81 79 77 75 73 71 69 67 66 65 64 64 63 60 61 65 68 68 65 65 66 66 64 61 59 56 54 53 52 51 49 47 45 45
147 147 144 142 141 140 140 140 140 140 140 139 139 139 136 132 131 132 130 128 125 121 118 119 122 123 119 115 110 104 99 108 123 131 132 131 130 129 126 122 118 113 107 106 110 115 116 111 107 106 110 113 112 109 105 103 102 100 97 91 86 84 85 86 86 86 85 83 81 80 78 77 75 73 71 69 67 65 64 64 65 64 62 61 63 65 64 63 64 65 66 65 64 63 61 60 60 58 56 55 55 53 50
150 148 145 142 141 141 141 141 141 141 141 141 142 143 140 135 133 133 132 133 134 133 129 125 123 123 122 121 117 111 104 109 125 135 138 136 135 132 127 122 118 114 108 107 111 115 115 110 108 111 115 117 114 109 105 104 103 102 98 92 87 83 82 83 83 84 83 82 81 80 79 78 76 74 71 69 67 66 65 65 65 64 65 64 63 61 60 59 59 61 63 64 64 63 62 62 61 60 59 58 59 58 54
153 149 145 145 144 143 143 143 143 143 144 144 145 145 145 143 139 136 136 135 137 142 143 139 132 127 125 125 123 118 111 112 128 139 142 141 138 134 127 122 119 115 110 109 112 114 113 111 112 116 120 119 115 109 104 102 101 99 96 91 88 86 82 83 83 82 82 82 82 81 80 79 76 74 71 69 68 67 66 67 66 65 64 64 63 62 60 58 58 60 61 62 62 61 59 58 57 57 56 55 54 53 51
155 152 148 151 151 149 146 146 146 146 145 145 146 149 150 148 143 137 134 132 134 138 143 145 141 134 130 129 129 127 121 119 132 142 145 144 141 136 129 124 121 118 113 111 112 114 114 114 116 120 122 120 114 108 104 101 99 96 93 89 87 85 83 83 83 82 82 82 81 81 81 79 77 74 71 70 69 68 68 68 68 68 68 66 64 63 63 61 61 61 61 61 62 61 59 57 56 56 54 54 52 51 50
156 155 153 158 158 154 148 148 148 147 146 148 150 152 154 150 143 137 133 132 131 133 138 142 143 140 137 137 139 139 132 126 135 144 146 146 143 138 130 125 123 119 115 114 115 117 118 118 122 124 124 119 114 109 105 102 100 96 92 89 87 87 86 86 86 84 83 82 82 82 82 80 78 75 73 72 71 70 69 69 69 69 69 70 67 65 63 63 62 62 61 61 61 61 59 58 56 55 54 53 52 52 51
159 158 157 162 162 157 148 149 151 150 149 151 153 155 155 149 143 138 137 136 134 134 136 141 143 144 144 149 155 156 148 136 140 145 147 147 144 139 132 127 124 121 118 117 118 120 121 123 126 127 124 118 113 109 106 103 100 96 93 93 94 94 94 93 91 89 87 86 85 84 83 81 79 77 75 74 73 72 71 70 70 70 71 72 70 67 65 64 63 63 61 60 60 59 58 57 56 55 54 53 53 52 50
165 162 157 160 160 155 148 151 153 153 153 156 158 157 154 151 147 145 144 141 139 140 142 144 147 150 155 161 168 170 163 146 144 146 147 146 145 140 134 130 127 124 121 120 121 122 123 127 129 128 123 118 113 109 106 103 100 97 96 97 97 96 96 95 93 91 89 88 87 86 84 82 79 78 77 76 75 75 73 71 70 71 72 73 73 71 69 66 65 63 61 61 59 58 57 56 54 53 53 53 53 51 50
167 163 157 157 157 154 152 157 160 161 162 164 163 160 155 154 154 153 152 148 146 147 149 151 154 159 165 172 179 179 166 149 146 146 146 146 145 142 137 134 131 128 125 124 123 123 126 130 131 128 122 117 113 110 107 105 102 100 99 98 95 93 92 92 90 89 88 89 87 86 84 82 80 78 78 77 77 76 74 72 71 71 72 73 74 74 72 69 66 64 62 60 59 58 57 55 54 54 53 53 53 52 52
165 162 160 158 157 157 161 169 171 171 172 173 170 163 156 157 160 161 158 154 153 153 154 155 157 159 163 169 174 171 158 148 146 146 145 146 146 144 141 138 136 133 130 127 124 125 129 133 132 128 121 117 113 111 109 106 104 101 100 98 95 92 90 89 88 88 88 88 87 85 84 82 79 78 76 76 77 77 76 73 72 71 72 73 74 74 73 71 69 66 64 62 60 59 59 58 57 56 56 55 55 55 55
164 164 165 161 160 164 172 177 178 178 178 178 173 163 154 157 164 168 164 162 162 160 157 153 148 141 135 138 147 151 149 146 145 145 145 145 146 145 144 142 140 137 135 130 125 126 132 135 133 128 121 117 115 112 109 107 104 102 101 99 96 94 92 90 89 88 87 87 85 84 83 81 79 78 76 76 78 80 80 77 74 73 72 72 73 75 74 72 71 69 66 64 62 61 61 60 60 60 59 59 59 59 59
166 168 169 167 167 172 180 183 183 181 175 169 162 155 150 158 167 172 172 171 168 163 155 146 136 125 116 116 126 139 144 146 145 145 145 145 145 145 144 144 143 142 139 132 127 129 135 137 134 128 122 119 117 114 111 108 106 103 101 100 97 95 93 94 92 91 89 87 85 82 82 81 80 78 77 75 77 81 82 80 77 75 73 73 74 75 75 74 73 71 69 67 65 64 63 63 63 63 63 63 63 62 62
171 172 172 171 172 177 184 185 182 175 161 149 145 146 150 160 169 173 174 170 163 154 147 141 132 122 112 110 118 132 143 146 147 147 146 146 145 144 144 145 145 145 142 135 130 133 139 140 136 130 125 121 118 116 113 109 107 105 102 100 98 96 95 96 94 93 92 89 86 85 84 83 82 81 78 75 76 78 80 81 79 77 75 74 75 75 75 75 74 72 70 68 67 66 65 65 65 65 65 64 64 64 63
175 176 174 174 177 181 185 182 176 164 146 142 144 150 156 163 168 168 164 156 149 144 142 140 135 126 118 113 117 128 141 147 150 150 148 147 145 143 144 145 147 147 144 138 135 138 143 142 139 133 127 124 120 117 114 111 108 107 103 101 99 97 97 96 95 94 93 90 88 88 87 86 85 83 80 77 76 77 79 79 80 78 77 77 76 76 76 76 75 73 71 69 68 67 67 67 67 66 65 65 64 62 61
177 178 177 177 180 183 183 177 169 157 146 148 154 160 162 162 161 156 149 143 140 139 141 142 141 136 128 123 122 128 138 148 153 154 152 149 146 145 146 148 150 150 147 143 142 144 148 146 142 136 131 126 122 119 116 113 112 109 105 103 100 98 97 97 96 95 93 90 89 89 89 88 86 85 82 79 78 78 78 78 79 78 78 77 77 77 77 76 75 74 72 71 69 68 67 67 67 66 65 63 61 59 57
180 179 179 180 182 183 180 174 166 160 157 159 163 164 162 158 153 148 143 141 141 143 147 149 147 142 137 134 132 134 138 147 154 158 157 154 150 148 150 153 154 153 151 149 149 150 152 151 146 140 134 129 125 121 117 116 115 112 108 104 101 99 98 97 97 95 93 90 88 87 88 88 87 85 83 81 79 79 79 78 78 77 77 76 77 78 78 78 76 75 74 72 71 68 67 66 66 65 63 62 59 57 55
181 181 181 182 183 183 180 174 168 166 165 166 166 163 159 155 150 147 144 144 147 150 152 152 148 144 141 142 142 143 144 149 154 158 160 158 155 153 155 158 158 156 155 154 154 155 157 155 151 145 139 133 127 121 115 114 115 115 111 106 102 100 99 98 97 95 93 90 88 87 87 88 87 85 82 81 81 82 80 79 77 76 75 74 75 76 79 79 78 76 75 73 71 69 66 64 63 62 61 59 57 55 54
184 183 183 184 186 185 181 176 172 170 169 167 165 161 156 153 150 148 146 147 149 151 152 150 147 145 145 147 149 150 151 152 154 155 158 161 160 159 161 162 161 159 158 158 158 158 160 160 158 152 146 139 133 125 116 112 112 113 111 107 104 101 99 99 98 96 94 90 89 87 86 86 86 85 82 82 82 83 83 82 78 77 75 73 73 74 77 79 79 77 75 73 71 68 64 61 59 58 57 56 55 53 51
187 187 187 188 189 188 184 180 175 172 169 166 162 158 154 152 151 149 148 149 150 151 150 149 149 150 152 152 152 153 154 156 155 152 154 160 162 163 166 166 164 160 159 160 160 160 162 164 164 160 154 147 141 133 122 117 115 114 110 107 103 101 99 98 98 96 95 91 88 86 85 84 84 84 84 84 83 84 84 83 81 79 77 75 73 72 75 78 78 77 75 73 70 67 63 59 56 53 53 52 53 52 48
190 191 190 191 191 190 187 183 178 173 170 165 161 157 154 152 151 151 150 151 152 153 152 153 156 159 162 161 159 157 157 159 160 157 154 161 164 167 170 170 165 160 159 161 161 161 163 167 169 169 164 158 151 144 135 128 125 122 115 110 104 100 98 96 96 95 95 92 89 86 84 82 82 84 84 85 85 84 84 83 83 81 80 78 75 73 74 75 77 77 74 71 67 65 61 57 53 50 48 47 49 50 47
192 193 192 191 191 189 186 183 179 174 170 166 162 159 156 154 153 153 154 155 157 158 159 161 165 169 173 173 169 165 161 161 163 163 161 163 166 170 173 172 166 160 158 160 162 162 163 168 174 178 177 172 166 158 149 142 138 134 128 121 113 106 100 96 94 93 93 92 90 87 84 81 80 81 82 83 83 83 81 83 82 80 82 81 78 75 73 75 75 74 71 67 64 61 58 55 51 47 44 44 44 45 45
191 192 190 188 186 185 183 182 179 175 173 169 166 163 160 158 157 157 158 159 161 164 168 171 173 175 179 182 179 173 168 165 166 167 166 165 168 171 174 174 168 161 159 161 164 165 166 170 177 185 188 187 182 174 164 155 150 147 142 136 128 119 111 104 98 94 92 92 90 89 86 83 80 78 80 78 79 79 77 79 81 81 81 81 81 79 76 76 75 73 69 65 61 58 56 52 48 44 42 42 42 42 40
189 188 185 182 181 180 180 180 178 176 175 173 170 168 164 163 161 161 162 163 166 171 177 180 179 177 178 182 182 178 173 170 169 167 165 165 168 171 174 175 171 165 162 164 167 169 170 172 178 186 192 195 194 189 181 171 165 162 159 154 147 138 128 120 111 101 95 92 92 90 89 85 81 79 77 76 76 76 76 77 78 81 83 82 81 81 80 79 77 75 70 65 61 58 55 51 45 42 41 41 40 39 36
186 183 180 178 177 177 178 178 177 177 176 176 175 173 170 167 166 166 166 168 171 177 185 188 185 180 175 178 180 180 177 174 171 165 161 164 167 171 174 176 175 170 167 168 170 172 172 170 172 180 189 195 198 198 195 188 183 181 182 181 176 167 156 143 130 116 104 98 95 95 92 90 86 83 83 81 77 73 73 75 78 81 82 86 86 85 82 81 80 79 73 68 61 57 56 51 45 41 40 40 38 33 28
184 180 178 177 177 177 177 177 176 177 178 179 179 177 174 171 170 170 171 173 177 184 192 195 192 184 175 175 177 179 178 176 171 164 159 163 168 171 174 178 179 176 172 172 173 176 175 169 165 168 179 190 197 201 203 204 204 205 209 212 210 205 194 179 159 139 120 107 102 101 99 97 96 92 88 83 78 76 76 76 77 78 81 84 85 84 81 79 77 76 74 70 62 58 58 53 45 39 36 35 31 25 18
182 179 178 178 178 179 178 177 177 177 179 181 182 180 177 175 175 176 177 179 184 191 197 200 198 190 180 174 174 177 178 176 170 163 158 162 168 172 175 179 182 182 179 177 178 180 180 175 167 162 168 182 193 200 206 212 217 221 226 229 229 227 222 213 198 174 147 124 111 107 105 105 105 103 97 96 91 85 80 78 77 77 80 83 85 84 78 72 67 66 69 73 71 67 59 53 44 35 27 24 20 14 9
183 180 180 180 181 181 179 178 178 179 180 182 183 182 179 178 179 180 183 187 193 199 203 204 202 198 188 176 173 175 177 175 170 163 159 161 167 172 176 180 184 186 185 183 184 187 188 187 183 175 171 178 189 199 207 214 221 226 230 232 233 234 233 230 225 212 187 157 135 123 116 114 117 117 112 108 102 93 86 83 78 73 74 79 87 88 83 72 61 58 62 66 74 68 50 40 31 24 14 8 4 2 359
185 183 183 183 183 183 182 181 181 181 181 182 183 183 182 181 182 184 188 194 200 204 205 206 207 205 196 181 174 174 177 175 171 166 162 161 164 170 175 179 183 187 190 191 192 195 197 198 200 199 193 189 191 196 205 212 219 223 227 228 230 232 235 236 236 231 220 199 174 153 143 140 142 141 130 126 118 110 100 90 82 73 62 66 74 87 93 83 63 55 56 59 67 57 30 13 2 0 359 355 352 351 350
188 187 186 186 186 185 185 184 184 183 182 183 184 185 185 184 184 187 193 198 202 203 202 204 208 208 202 188 177 174 176 176 174 170 167 164 165 168 173 177 182 186 191 195 199 201 204 208 212 214 210 204 198 196 199 206 213 217 220 221 223 226 231 234 236 235 231 224 211 191 173 164 163 163 163 158 150 139 123 106 88 69 58 52 56 68 96 128 98 51 48 54 56 48 20 348 338 336 338 339 341 342 342
190 190 189 189 188 188 188 187 186 185 185 185 186 188 189 186 187 190 196 199 199 197 197 200 204 206 203 193 182 176 176 177 176 174 172 170 170 172 176 180 184 188 192 197 201 204 208 212 218 222 220 213 205 200 200 204 211 215 217 220 221 224 227 230 232 233 232 231 228 220 206 191 183 181 181 180 176 170 161 143 121 90 57 45 34 32 29 189 208 231 353 17 25 22 3 336 327 321 320 324 326 329 331
192 192 192 191 191 191 190 190 189 188 188 188 189 190 191 190 190 193 197 197 196 195 195 197 200 201 200 195 186 179 177 178 178 177 176 177 177 179 183 187 191 194 196 198 201 204 209 215 222 227 227 221 215 210 211 217 223 223 222 223 225 226 229 230 231 232 232 232 232 230 226 219 210 203 200 198 195 190 184 176 164 143 106 34 17 1 338 279 231 241 261 289 323 343 348 338 327 318 316 315 315 317 320
194 195 195 194 193 192 192 191 190 190 190 191 193 193 193 193 194 196 197 197 196 196 196 196 196 198 198 196 191 183 179 180 181 181 180 181 183 186 189 194 198 202 203 203 204 207 210 217 224 231 234 231 227 225 228 237 242 240 234 231 231 232 233 233 234 235 237 236 236 235 234 234 230 226 222 219 213 206 201 194 186 178 164 166 326 322 323 297 260 247 253 263 278 300 322 331 329 322 317 313 312 314 317
196 197 198 196 195 194 193 192 191 191 192 194 196 196 196 196 197 198 198 198 198 199 199 197 195 195 197 198 195 189 183 182 183 184 183 184 187 190 193 197 201 205 207 208 209 211 212 217 225 232 236 237 237 237 240 249 254 252 245 240 238 238 238 237 237 239 242 244 244 242 241 241 241 241 241 238 232 225 219 211 202 193 183 181 197 266 287 283 262 251 249 256 264 275 293 309 321 322 316 311 311 314 315
198 199 199 197 196 195 195 193 192 193 194 196 198 198 199 197 197 198 200 200 201 203 204 200 196 194 195 198 199 195 189 186 187 188 188 189 190 193 195 198 200 202 205 208 211 212 213 218 224 231 235 239 241 243 247 254 259 257 250 244 242 242 241 241 239 241 246 251 253 253 250 247 246 247 249 250 247 242 236 228 219 209 197 188 188 213 247 258 253 248 245 252 258 265 271 284 296 306 308 308 310 311 312
200 201 200 198 197 196 196 195 194 195 197 198 198 198 199 199 198 199 201 202 204 206 209 207 201 196 195 197 198 197 193 190 190 191 193 194 195 196 197 198 199 199 201 205 208 210 213 218 224 230 234 237 241 245 250 257 261 261 254 247 244 244 243 241 240 240 244 251 257 259 257 254 251 250 252 254 255 253 249 243 234 223 211 199 192 198 222 234 243 243 242 247 254 259 265 271 280 289 296 303 306 307 309
201 202 200 199 198 197 197 197 197 198 199 199 198 198 199 200 201 201 203 205 205 207 212 214 210 203 198 198 198 197 195 193 192 194 197 199 200 199 198 198 197 198 200 203 206 210 214 219 225 230 234 237 242 246 251 258 263 263 258 251 247 246 245 243 241 240 242 249 256 261 261 259 256 254 254 256 257 257 254 251 243 233 223 212 202 199 207 212 228 240 239 245 252 260 265 270 278 286 291 297 301 304 305
202 203 202 200 199 199 199 199 200 201 200 200 198 198 200 202 204 205 206 207 207 208 212 215 216 213 205 199 197 196 195 194 194 195 199 201 202 202 200 199 198 198 200 203 206 210 217 223 228 232 235 239 244 248 253 259 264 265 262 258 254 253 253 252 250 249 249 251 256 261 263 262 259 258 257 257 258 258 256 254 248 238 229 220 213 207 206 205 211 227 239 245 255 261 270 277 284 289 293 296 299 301 303
204 204 204 203 202 202 202 202 202 202 202 201 200 200 201 204 206 208 210 211 210 210 212 214 216 216 211 203 198 196 195 194 194 196 199 202 204 204 203 201 200 201 204 206 208 212 219 226 232 235 239 243 246 250 255 259 263 266 266 264 262 262 263 264 265 264 262 261 261 263 265 264 263 260 260 260 260 259 257 255 249 242 233 226 220 216 213 207 204 210 235 253 264 272 279 285 292 296 297 300 301 303 303
206 205 206 206 205 204 204 204 204 204 203 202 202 202 203 205 207 209 211 213 213 212 212 212 212 213 212 206 200 196 195 195 195 196 198 202 204 205 205 205 205 207 209 211 212 215 220 226 232 238 242 245 248 252 256 260 263 266 268 267 267 267 270 273 274 274 273 270 269 268 267 266 264 262 261 261 261 261 259 256 250 243 236 230 226 224 222 216 209 208 223 252 276 287 291 295 299 301 301 303 304 304 304
207 207 207 208 207 206 205 205 205 204 204 203 203 203 204 206 208 209 211 214 215 215 213 211 209 209 210 208 204 200 198 197 197 197 200 203 205 206 208 209 211 213 215 217 218 219 221 225 231 237 243 247 250 253 257 260 263 266 268 268 268 269 272 275 277 278 277 275 274 272 270 268 266 265 263 263 263 262 261 256 251 244 239 234 232 231 231 227 222 219 221 237 266 289 296 301 303 305 306 307 306 305 304
209 208 208 208 208 208 207 206 206 205 204 204 204 205 205 207 208 209 211 212 214 216 215 211 207 205 206 208 208 205 202 200 200 200 203 205 206 207 209 212 216 219 221 222 223 223 223 225 229 235 241 245 249 253 256 259 262 265 266 266 267 269 272 274 276 277 277 277 275 273 271 269 267 266 266 265 265 264 261 257 252 246 242 238 237 237 238 237 234 231 230 235 253 276 292 301 305 307 309 308 307 305 304
210 209 208 208 209 208 208 207 207 206 205 205 205 205 205 207 208 209 210 211 213 215 215 212 206 203 203 205 207 207 205 203 202 202 204 205 206 207 210 215 220 224 227 227 226 225 225 226 229 233 238 243 247 250 254 257 260 262 262 264 266 267 269 271 273 274 276 275 274 272 270 269 268 267 267 266 266 265 263 259 254 249 245 243 242 243 245 246 245 242 240 241 248 263 279 293 303 308 310 308 306 305 303
211 210 209 209 209 209 208 208 208 207 206 205 205 206 207 208 209 210 212 213 214 215 215 213 207 202 200 201 203 204 205 205 205 205 203 203 204 207 211 216 222 227 230 231 229 228 227 227 230 233 237 241 244 248 252 255 258 259 261 262 263 263 264 265 267 269 271 272 272 271 270 269 268 268 268 267 266 265 263 260 256 252 248 246 246 247 249 252 253 251 248 247 249 255 263 274 289 301 304 305 304 302 300
211 211 210 210 209 209 209 209 208 208 208 207 207 208 210 211 212 213 215 216 217 216 214 212 208 204 201 201 201 202 203 204 205 206 205 200 199 205 215 219 222 226 230 232 231 230 230 231 233 235 238 241 244 247 250 253 255 257 259 259 260 259 259 259 261 264 266 267 268 268 268 268 268 268 268 267 266 264 263 261 257 254 251 249 247 248 250 253 254 254 252 250 251 254 260 269 282 291 294 296 297 297 296
210 210 210 210 210 210 210 209 209 209 209 209 210 211 212 214 215 215 216 217 218 216 212 209 207 206 204 204 203 203 202 202 202 201 197 195 192 195 214 222 226 228 231 233 233 233 234 235 236 238 240 241 243 246 248 251 253 255 256 257 257 257 257 256 258 260 262 263 265 265 266 266 267 267 268 267 266 264 262 260 257 254 252 250 249 248 250 251 252 252 251 251 253 256 262 272 281 284 283 284 286 288 290
209 209 210 210 210 210 210 210 209 209 210 210 212 213 213 214 215 216 216 216 216 215 210 205 204 207 208 209 208 207 204 203 201 197 185 190 193 189 157 181 226 244 248 243 240 238 238 239 240 241 242 243 244 245 247 249 251 252 254 255 256 257 257 257 257 259 260 262 263 263 263 264 265 266 267 267 267 265 263 260 257 254 252 250 249 249 249 250 249 249 248 249 251 256 264 272 277 278 278 277 277 279 283
209 209 209 210 210 211 211 211 210 210 209 209 210 211 212 213 214 215 215 216 216 215 212 206 203 204 207 210 211 211 208 205 205 202 193 184 180 178 163 140 111 345 323 257 249 246 240 242 243 244 244 244 245 245 246 247 249 251 253 254 256 257 257 258 259 259 260 261 262 262 262 263 263 264 266 266 267 267 266 263 260 256 252 250 249 248 248 248 248 246 245 244 247 254 265 273 277 279 278 276 273 273 276
209 209 209 209 210 211 211 211 211 211 209 208 208 209 210 211 212 213 215 215 215 215 214 212 206 202 203 206 210 211 211 209 207 208 207 191 173 155 149 101 101 225 336 16 337 291 249 241 243 245 245 244 245 245 245 246 247 249 251 253 255 257 258 259 259 259 260 261 261 262 262 263 263 263 264 265 266 266 267 266 263 260 255 251 249 248 248 247 246 244 242 244 250 258 268 275 279 280 279 276 273 270 270
210 210 210 210 210 211 211 211 211 211 211 209 208 209 209 210 211 212 213 213 213 213 213 213 211 205 200 204 208 210 211 210 209 209 210 204 188 157 109 90 162 179 136 108 48 313 295 256 244 244 244 243 243 243 244 244 245 247 249 252 254 256 257 258 259 259 260 261 263 263 264 264 264 263 263 263 264 265 265 265 264 262 259 255 252 249 249 248 246 244 245 250 258 265 272 276 278 279 278 276 272 269 268
211 211 211 211 211 211 211 212 212 212 212 211 210 210 210 210 210 212 213 214 214 213 212 212 212 209 204 203 206 209 211 210 210 209 210 213 206 193 163 130 97 46 35 55 108 229 258 285 283 258 247 243 242 242 243 243 244 246 247 250 252 254 255 257 258 260 261 264 265 266 266 266 265 263 262 262 262 262 263 263 262 261 259 257 254 252 250 248 247 248 252 260 267 271 274 275 276 276 275 273 269 266 266
211 212 212 212 212 211 212 212 212 212 212 212 211 211 211 212 212 213 215 216 216 216 214 212 212 213 212 209 207 208 210 210 210 210 209 212 213 214 213 178 125 112 45 323 238 231 244 301 323 306 262 246 242 241 243 244 245 246 247 250 252 254 255 256 258 260 263 266 267 267 267 267 266 264 262 261 260 260 261 261 260 259 258 256 254 252 249 247 247 251 258 267 273 274 275 275 274 273 270 268 264 263 264
211 212 213 213 213 213 213 212 212 213 213 213 212 211 213 214 214 214 215 216 217 217 216 215 214 215 217 216 214 211 209 208 209 210 210 211 214 219 223 230 218 186 187 187 208 223 182 101 73 327 279 264 248 244 246 247 247 247 248 250 252 254 255 257 259 261 264 266 267 268 268 268 267 266 264 262 261 260 260 259 258 257 255 254 252 250 247 246 247 253 262 270 274 275 274 273 270 267 265 261 260 259 262
212 212 213 214 215 214 214 213 213 213 213 213 213 212 213 214 213 213 214 215 217 218 218 218 217 217 218 220 219 215 211 209 209 210 211 212 215 219 224 230 236 240 244 234 225 181 146 98 94 214 297 313 279 252 252 252 251 250 250 251 252 253 255 257 259 261 264 266 267 268 268 267 267 266 266 264 263 262 261 260 259 257 254 253 251 248 245 245 248 256 265 272 275 275 274 271 268 264 260 257 256 257 261
213 212 213 214 215 215 215 214 214 213 214 213 212 212 212 213 213 214 215 217 218 219 219 219 219 220 220 220 219 216 213 214 214 213 211 213 217 220 224 229 235 242 247 253 259 257 212 151 159 175 102 329 307 285 271 264 259 257 255 253 253 253 254 255 257 260 263 265 267 268 268 267 267 266 266 265 265 264 263 262 260 257 254 252 250 247 244 245 250 259 268 273 275 275 273 270 267 263 259 256 256 258 262
215 213 212 213 214 215 214 214 214 214 214 213 212 211 211 213 215 216 216 218 219 220 220 220 222 223 223 222 220 218 217 219 221 218 213 214 220 224 225 228 233 238 244 249 255 258 258 244 224 187 137 193 284 302 294 274 268 267 264 259 256 255 255 257 259 261 263 266 268 268 267 267 267 266 265 265 265 265 264 264 262 259 256 253 249 246 244 246 253 261 268 273 274 274 273 270 268 264 261 259 259 261 263
216 214 212 212 213 213 213 213 212 213 213 213 212 212 212 214 215 215 215 216 218 220 221 222 223 223 224 225 224 223 223 224 224 222 218 215 221 228 227 228 231 235 239 244 249 254 257 256 256 253 235 183 175 272 290 287 283 277 272 268 264 261 260 261 263 264 266 268 268 267 267 268 267 266 265 265 265 265 265 264 263 261 257 253 249 246 246 249 256 263 270 273 273 273 272 270 268 265 263 262 262 263 264